Wind_Speed
6 5 3 2 2 2 1 1 1 1 1 2 2 2 2 3 3 4 4 5 5 6 7 8 9 10 10 11 12 12 11 11 11 11 11 10 10 9 8 8 7 6 6
6 5 4 4 3 2 1 0 0 0 1 1 1 2 2 2 3 3 3 4 4 5 6 7 8 8 9 10 11 12 11 11 11 11 11 12 11 11 10 10 9 8 7
7 5 5 4 3 2 2 1 1 1 1 0 1 1 2 2 2 2 2 3 3 4 5 7 7 8 9 10 11 11 11 12 12 12 12 13 13 13 12 12 11 10 9
8 6 5 5 4 3 2 1 1 1 1 1 1 1 1 2 2 1 2 2 3 3 4 5 6 7 7 8 10 10 11 11 12 12 13 13 14 14 14 13 13 12 11
8 7 6 5 4 3 3 2 2 2 1 1 1 1 1 2 2 1 1 2 3 3 4 5 5 6 6 7 9 10 10 11 11 12 13 14 14 15 15 15 14 14 13
9 8 7 6 5 4 3 3 3 2 2 1 1 1 1 1 2 2 2 2 2 2 3 4 5 6 6 6 7 8 9 10 11 11 13 13 14 15 16 16 16 16 15
10 8 7 7 6 5 4 3 3 2 2 1 1 1 1 1 1 1 2 2 2 2 2 3 4 5 5 6 7 7 8 8 10 11 11 12 13 14 15 16 16 17 17
10 8 7 7 6 5 4 4 3 3 2 1 1 0 1 2 2 2 2 2 2 2 2 3 3 4 5 6 6 7 8 9 9 10 11 12 13 14 14 14 15 15 16
10 9 8 7 7 6 5 4 4 3 3 2 1 1 1 2 2 2 3 3 3 3 3 3 3 4 5 6 6 7 8 8 9 10 11 12 13 14 15 15 15 16 17
11 10 9 9 8 7 6 6 5 4 3 2 2 1 1 2 2 3 3 4 4 4 4 5 5 5 6 6 7 7 8 8 9 10 11 11 11 13 14 15 15 15 16
12 11 10 10 9 8 8 7 6 5 3 3 2 2 2 2 3 3 4 4 4 5 5 6 7 7 7 7 7 8 8 9 10 10 11 11 11 12 13 14 15 15 16
13 12 11 11 10 10 9 8 7 6 5 4 3 3 3 4 4 4 5 5 6 6 7 7 7 8 8 9 9 9 9 10 10 10 11 11 11 12 13 14 15 15 16
13 13 13 12 12 11 11 10 9 8 7 6 6 5 6 6 6 7 7 7 8 8 8 9 9 9 10 10 10 10 10 11 11 11 11 12 12 12 13 14 15 16 16
15 14 14 14 13 13 13 12 11 11 10 9 9 8 9 9 9 10 10 10 11 11 11 11 11 11 12 12 12 12 12 12 12 13 13 13 13 14 14 15 15 16 17
15 16 15 15 15 15 15 14 13 13 13 12 12 12 12 12 13 13 13 14 14 14 14 14 14 14 15 15 15 15 14 14 15 15 15 15 15 15 16 16 17 18 18
15 17 17 16 16 16 17 17 16 16 16 16 16 16 16 16 16 16 17 17 17 18 18 18 18 18 18 18 18 18 17 17 17 18 17 17 17 18 18 18 18 18 19
16 17 17 17 17 17 18 18 19 19 19 19 20 20 20 20 20 20 21 21 21 21 21 21 21 21 21 21 21 21 21 21 20 20 20 20 20 20 21 21 21 21 21
17 17 18 18 18 18 19 20 20 21 21 22 23 23 23 24 24 24 24 25 25 25 25 25 25 25 25 25 25 25 25 25 24 24 24 24 24 24 24 24 24 24 24
18 18 19 19 19 20 20 21 22 23 24 25 25 26 26 26 27 28 28 28 29 29 29 29 29 29 29 29 29 28 28 28 28 28 27 27 28 28 28 28 28 28 28
19 20 20 21 22 22 23 24 25 26 26 27 28 28 29 29 30 31 31 32 32 33 33 33 32 32 32 32 32 32 32 32 31 31 31 31 31 31 31 31 31 31 31
20 21 22 24 24 25 26 27 27 28 29 30 31 31 32 33 33 34 34 34 35 35 35 35 35 35 35 36 35 35 35 35 35 35 35 34 34 34 34 34 34 35 35
20 22 23 24 26 27 28 29 30 31 32 33 33 34 35 36 36 36 37 38 38 38 37 37 38 38 38 38 38 38 38 38 38 38 38 37 38 38 38 37 37 37 38
21 23 23 25 26 28 30 31 33 34 34 35 36 37 37 38 39 39 39 39 40 40 40 40 40 40 40 39 39 40 40 40 40 41 41 41 42 41 41 41 40 40 40
24 25 26 27 28 29 31 32 33 34 36 37 38 39 39 40 39 40 41 40 40 40 41 41 41 42 42 41 41 41 42 43 43 43 44 43 44 44 44 44 43 43 44
26 28 28 29 30 31 32 34 34 35 36 37 38 39 39 40 40 40 40 41 41 42 42 43 43 43 44 44 44 44 45 46 46 46 46 46 47 47 47 47 47 47 47
29 31 31 32 32 32 33 35 36 37 37 38 38 39 40 41 42 42 43 43 44 44 45 46 45 45 46 46 46 47 47 48 48 49 50 50 50 51 50 49 50 51 51
Wind_Direction
221 213 213 209 211 220 229 281 301 276 261 269 273 270 268 267 260 257 254 250 243 240 234 229 225 228 226 223 220 223 226 227 231 227 224 223 222 222 224 226 230 231 231
216 213 207 196 193 195 192 263 282 235 250 261 282 289 293 292 276 271 267 255 249 244 237 232 232 232 229 227 225 228 230 230 231 229 227 227 228 228 230 232 234 234 235
210 209 200 192 187 175 162 165 177 185 199 216 292 298 308 312 298 284 278 261 251 251 247 243 243 240 237 233 233 233 233 233 232 232 231 233 235 236 237 237 237 238 239
203 196 193 190 186 171 167 163 172 177 183 208 265 293 311 317 320 306 285 275 263 258 251 248 252 248 243 240 238 237 237 238 236 235 237 239 240 240 240 240 240 241 242
194 193 191 191 180 173 170 173 175 174 182 215 258 300 338 342 347 342 312 288 276 261 256 251 252 252 248 243 243 242 241 243 241 239 241 244 244 244 244 243 242 243 245
195 196 196 192 184 178 178 183 188 191 201 216 234 301 339 351 351 347 342 328 310 280 272 262 256 258 256 251 251 250 248 243 244 245 246 248 247 247 246 245 246 246 246
198 197 196 195 187 176 174 179 183 193 205 213 217 289 333 347 345 355 359 356 346 321 286 274 267 264 263 263 261 259 256 252 250 250 250 251 252 251 249 247 248 247 248
199 200 199 199 190 184 182 182 183 187 184 183 192 275 331 339 333 342 348 350 346 332 304 282 282 276 273 272 271 269 263 262 262 258 260 259 258 255 255 253 250 250 251
204 204 204 201 197 194 190 186 184 182 180 186 196 258 308 330 341 339 340 338 330 327 325 308 300 295 287 284 279 277 273 271 271 268 268 267 261 258 258 256 257 257 255
207 207 207 203 199 197 197 194 190 189 190 202 216 250 283 313 329 338 337 334 330 322 320 319 315 304 298 297 293 288 280 275 274 274 276 276 269 264 262 261 259 261 261
209 209 206 203 202 202 204 204 204 204 207 214 232 256 268 282 302 315 321 320 322 319 314 311 309 305 302 300 299 293 290 285 278 276 278 278 275 272 267 266 264 264 265
212 212 208 207 208 210 213 214 215 217 221 228 243 259 269 276 285 296 304 309 310 311 308 305 304 302 300 299 299 297 293 291 285 283 281 279 277 276 272 270 268 266 268
215 214 213 214 217 217 219 221 224 227 235 245 255 264 270 276 282 288 294 298 301 302 302 301 301 301 300 298 298 297 295 291 289 286 285 282 280 279 277 274 271 269 269
217 218 221 223 224 225 227 229 233 236 242 251 260 266 272 277 282 285 288 291 293 296 297 297 297 297 297 296 294 292 292 290 288 287 286 284 282 280 279 278 276 273 271
222 224 229 231 231 232 234 236 240 243 248 254 260 266 271 276 281 283 285 287 289 291 292 293 293 292 291 291 291 290 289 288 286 285 284 283 281 279 278 277 276 275 274
228 231 233 235 237 238 240 243 245 248 252 257 262 266 270 275 279 282 284 285 286 288 288 289 289 289 288 288 287 287 286 285 284 283 282 281 280 280 279 278 278 277 276
233 235 237 238 241 244 246 248 250 253 256 260 264 268 271 274 278 280 281 283 284 285 285 286 286 286 286 285 283 284 284 284 284 282 281 279 279 278 278 278 278 278 278
237 240 241 243 245 248 250 251 254 256 259 262 266 269 272 274 276 278 280 281 282 283 283 284 284 283 283 282 281 280 281 281 282 281 280 278 277 277 276 276 276 277 277
242 243 246 249 251 253 255 256 258 260 263 266 268 270 273 275 276 277 278 280 281 281 282 282 281 281 281 281 280 279 278 278 279 279 279 278 277 276 275 275 275 275 275
246 248 251 254 256 257 259 260 262 264 266 268 270 271 273 275 276 277 278 280 280 280 280 281 281 280 279 279 279 278 277 277 277 277 277 277 276 276 275 275 274 274 274
253 254 256 258 260 261 263 264 266 267 269 271 272 273 273 275 277 278 278 279 281 280 279 279 279 278 278 278 278 278 278 278 278 277 276 276 276 276 275 274 274 275 275
259 260 263 264 264 265 266 267 268 271 272 273 273 274 275 276 277 278 278 279 280 279 278 278 278 278 277 276 276 276 276 277 278 277 277 276 276 276 275 274 274 274 274
264 266 269 269 269 271 271 271 271 272 273 274 274 274 275 276 276 277 278 279 280 279 278 277 276 276 275 275 276 276 276 277 277 277 276 277 276 275 274 274 274 273 273
268 270 271 273 274 274 275 276 276 275 276 277 276 276 277 278 278 278 277 278 279 278 278 278 277 275 274 275 275 276 276 276 276 276 277 276 276 275 275 275 274 273 273
270 271 273 275 276 277 278 279 280 280 280 280 280 279 279 279 279 279 278 278 278 277 276 276 276 276 274 274 274 275 275 275 275 275 276 276 275 275 274 274 275 274 273
273 274 274 276 277 278 280 281 283 283 282 280 280 280 279 279 279 278 278 277 277 276 275 276 276 276 276 275 275 274 275 276 276 276 275 275 274 274 274 275 275 274 274
Height
5888 5889 5889 5889 5890 5890 5889 5889 5889 5889 5889 5889 5889 5888 5888 5888 5888 5887 5887 5887 5887 5888 5888 5889 5889 5890 5891 5892 5893 5895 5896 5896 5897 5899 5900 5901 5902 5903 5904 5905 5905 5906 5907
5886 5887 5888 5889 5889 5889 5889 5889 5889 5889 5889 5888 5888 5888 5888 5887 5887 5887 5886 5886 5886 5887 5887 5888 5888 5889 5890 5891 5892 5893 5894 5895 5896 5897 5898 5900 5901 5902 5903 5903 5904 5905 5906
5885 5886 5887 5888 5888 5889 5889 5889 5889 5889 5889 5888 5888 5888 5888 5887 5887 5886 5886 5886 5886 5886 5886 5887 5887 5888 5888 5889 5890 5891 5892 5893 5894 5895 5897 5898 5899 5900 5901 5902 5903 5903 5904
5884 5885 5886 5887 5887 5888 5888 5889 5889 5889 5889 5888 5888 5888 5888 5887 5887 5886 5886 5885 5885 5885 5885 5886 5886 5887 5887 5888 5888 5889 5890 5891 5892 5893 5895 5896 5897 5898 5899 5900 5900 5901 5902
5883 5884 5885 5886 5887 5888 5888 5888 5888 5889 5889 5889 5888 5888 5888 5887 5887 5886 5886 5885 5885 5885 5885 5885 5885 5886 5886 5886 5887 5888 5888 5889 5890 5892 5893 5893 5894 5895 5896 5897 5898 5899 5900
5881 5883 5884 5885 5886 5887 5887 5888 5888 5888 5888 5889 5888 5888 5888 5887 5887 5886 5886 5885 5885 5884 5884 5884 5885 5885 5885 5885 5886 5886 5887 5887 5888 5889 5890 5891 5892 5893 5893 5894 5895 5896 5897
5880 5882 5883 5884 5885 5886 5887 5887 5888 5888 5888 5889 5889 5888 5888 5887 5887 5886 5886 5885 5885 5884 5884 5884 5884 5884 5884 5884 5885 5885 5885 5886 5886 5887 5887 5888 5889 5889 5890 5891 5892 5893 5894
5879 5881 5882 5884 5885 5886 5886 5887 5888 5888 5888 5889 5889 5888 5888 5888 5887 5886 5886 5886 5885 5884 5884 5884 5884 5883 5883 5883 5884 5884 5884 5884 5885 5885 5885 5886 5886 5887 5887 5888 5889 5890 5891
5878 5880 5881 5883 5884 5885 5886 5887 5887 5888 5888 5888 5888 5889 5888 5888 5887 5887 5886 5886 5885 5885 5884 5884 5883 5883 5882 5882 5882 5883 5883 5883 5883 5883 5883 5883 5883 5884 5884 5885 5886 5887 5887
5876 5878 5880 5881 5883 5884 5885 5886 5887 5887 5888 5888 5888 5888 5888 5888 5888 5887 5887 5886 5885 5885 5884 5883 5883 5882 5882 5881 5881 5881 5881 5881 5881 5881 5881 5881 5881 5881 5881 5882 5883 5883 5884
5875 5877 5879 5880 5882 5883 5884 5885 5886 5887 5887 5887 5888 5887 5887 5887 5887 5887 5886 5886 5885 5884 5883 5883 5882 5882 5881 5880 5880 5880 5879 5879 5879 5879 5878 5878 5878 5878 5878 5879 5879 5880 5880
5873 5875 5877 5879 5880 5882 5883 5884 5885 5886 5886 5887 5887 5887 5887 5886 5886 5886 5885 5885 5884 5884 5883 5882 5881 5881 5880 5879 5879 5878 5878 5877 5877 5876 5876 5876 5875 5875 5875 5876 5876 5876 5877
5872 5874 5875 5877 5879 5880 5881 5883 5884 5885 5885 5885 5885 5885 5886 5885 5885 5885 5884 5883 5883 5882 5881 5881 5880 5879 5878 5878 5877 5876 5876 5875 5875 5874 5873 5873 5873 5872 5872 5872 5872 5872 5873
5870 5872 5873 5875 5877 5878 5879 5881 5882 5883 5883 5884 5884 5884 5884 5884 5883 5883 5883 5882 5881 5880 5880 5879 5878 5877 5876 5875 5875 5874 5873 5873 5872 5871 5871 5870 5870 5869 5869 5869 5868 5868 5868
5867 5869 5871 5873 5874 5875 5877 5878 5879 5880 5880 5881 5881 5881 5881 5881 5881 5880 5880 5879 5879 5878 5877 5876 5875 5874 5873 5872 5871 5871 5870 5869 5869 5868 5867 5867 5866 5866 5865 5865 5865 5864 5864
5864 5866 5868 5869 5871 5872 5874 5875 5876 5877 5877 5878 5878 5878 5878 5878 5878 5877 5877 5876 5875 5875 5874 5873 5872 5871 5870 5869 5868 5867 5866 5865 5865 5864 5863 5863 5862 5861 5861 5860 5860 5860 5859
5861 5863 5865 5866 5867 5869 5870 5871 5872 5873 5873 5873 5874 5874 5874 5873 5873 5873 5872 5871 5871 5870 5869 5868 5867 5866 5865 5864 5863 5862 5861 5861 5860 5859 5858 5858 5857 5856 5856 5855 5855 5854 5854
5857 5859 5861 5862 5863 5864 5865 5866 5867 5867 5868 5868 5868 5869 5868 5868 5867 5867 5866 5866 5865 5864 5863 5862 5861 5860 5859 5858 5857 5856 5855 5854 5854 5853 5852 5852 5851 5850 5850 5849 5849 5848 5848
5854 5855 5857 5858 5859 5860 5861 5861 5862 5862 5862 5862 5862 5862 5862 5861 5861 5860 5860 5859 5858 5857 5856 5855 5854 5853 5852 5851 5850 5849 5848 5848 5847 5846 5845 5845 5844 5843 5843 5842 5842 5841 5841
5849 5851 5852 5853 5854 5855 5855 5855 5856 5856 5856 5856 5856 5855 5854 5854 5853 5853 5852 5851 5850 5849 5848 5847 5846 5845 5844 5843 5842 5841 5841 5840 5839 5838 5837 5836 5836 5835 5835 5834 5834 5833 5832
5845 5846 5847 5848 5848 5849 5849 5849 5849 5849 5849 5848 5848 5847 5847 5846 5845 5844 5843 5842 5841 5840 5839 5838 5837 5836 5835 5834 5833 5832 5831 5831 5830 5829 5828 5827 5826 5826 5826 5825 5824 5824 5823
5841 5841 5842 5842 5842 5842 5842 5842 5842 5841 5841 5840 5839 5839 5838 5837 5836 5835 5834 5833 5832 5830 5829 5828 5827 5826 5825 5823 5823 5822 5821 5821 5820 5819 5818 5818 5816 5816 5815 5814 5814 5813 5812
5836 5836 5836 5835 5835 5835 5835 5834 5834 5833 5832 5831 5830 5829 5828 5827 5826 5825 5824 5822 5821 5819 5818 5817 5816 5815 5814 5813 5812 5811 5810 5809 5809 5808 5806 5806 5805 5804 5803 5803 5803 5802 5801
5829 5829 5829 5829 5828 5828 5827 5826 5825 5823 5823 5821 5820 5819 5818 5816 5815 5813 5812 5811 5810 5809 5807 5805 5804 5803 5802 5801 5800 5799 5798 5797 5797 5795 5794 5794 5793 5791 5791 5790 5790 5790 5789
5822 5822 5821 5821 5820 5819 5818 5817 5815 5814 5813 5811 5810 5808 5807 5805 5804 5802 5800 5799 5798 5797 5795 5793 5792 5790 5789 5788 5787 5786 5785 5784 5784 5783 5781 5780 5779 5778 5778 5777 5776 5775 5775
5815 5814 5813 5812 5811 5810 5809 5807 5806 5804 5803 5801 5799 5797 5795 5794 5792 5790 5788 5787 5785 5784 5782 5780 5779 5777 5776 5774 5773 5772 5771 5770 5769 5769 5767 5766 5765 5763 5763 5763 5761 5760 5759